STARLINK-5054 (53906 NORAD) Tracking and Keplerian Element Data

This shows tracking and keplerian element data for the satellite.

Feedback or suggestion? Click here.




ElementValue
Catalog53906
NameSTARLINK-5054
Epoch Orbit945
Epoch Day325.25001157
Epoch Year2022
RAAN329.5048
Inclination53.2141
Eccentricity0.0004382
Argument of Perigee331.2082
Mean Anonmoly128.8971
Mean Motion15.73216889
Decay Rate-0.00112695
L11 53906U 22119W 22325.25001157 -.00112695 00000+0 -80816-3 0 9994
L22 53906 53.2141 329.5048 0004382 331.2082 128.8971 15.73216889 9452



Live tracking and technical data element details for STARLINK-5054 (NORAD 53906). STARLINK-5054 can be tracked NOW for your location showing map with azimuth and elevation plus other details from your city location.







IsCatalogInMostPopularTable: catalog: 53906, numindb: 1
Update: records affected: 1



GetName: 53906 STARLINK-5054

Hit Count: updated at: Fri, 09 Dec 2022 19:52:52 GMT